Home > Weather > Judenburg > Past weeks

Flag for Austria Weather for the Past 2 Weeks in Judenburg, Styria, Austria

Now
32 °F

Partly sunny.


Feels Like: 29 °F
Forecast: 23 / 41 °F
Wind: 3 mph from East

Location: Zeltweg

Current Time: Feb 12, 2016 at 1:25:08 PM

Latest Report: Feb 12, 2016 at 12:50 PM


Visibility: 12 mi

Pressure: 29.59 "Hg (26.98 "Hg at 739m altitude)

Humidity: 75%

Dew point: 25 °F

Location of JudenburgLocation

Historic Weather in Judenburg — Graph

°F

Judenburg Temperature Yesterday

Maximum temperature yesterday: 43 °F (at 1:50 PM)
Minimum temperature yesterday: 21 °F (at 7:20 AM)
Average temperature yesterday: 32 °F

High & Low Weather Summary for the Past Weeks

 TemperatureHumidityPressure
High57 °F (Feb 1, 1:50 PM)100% (Jan 29, 6:50 AM)30.42 "Hg (Jan 29, 6:50 AM)
Low19 °F (Feb 12, 4:50 AM)45% (Feb 4, 11:20 AM)29.27 "Hg (Feb 10, 6:50 AM)
Average37 °F78%29.98 "Hg
* Reported Jan 28 11:20 AM — Feb 12 11:50 AM, Judenburg, Weather by CustomWeather, © 2016

Note: Actual official high and low records may vary slightly from our data, if they occured in-between our weather recording intervals... More about our weather records

Advertising

Judenburg Weather History for the Previous 24 Hours

 ConditionsComfort  
Time TempWeatherWind HumidityBarometerVisibility
11:50 AM
Fri, Feb 12
30 °FPartly sunny.1 mph80%29.62 "Hg12 mi
11:20 AM28 °FPartly sunny.2 mph86%29.65 "Hg12 mi
10:50 AM28 °FPartly sunny.1 mph100%29.65 "Hg12 mi
10:20 AM27 °FPartly sunny.1 mph86%29.65 "Hg12 mi
9:50 AM27 °FPartly sunny.3 mph86%29.68 "Hg9 mi
9:20 AM25 °FFog.1 mph93%29.68 "Hg7 mi
8:50 AM23 °FPartly sunny.5 mph93%29.68 "Hg7 mi
8:20 AM23 °FFog.2 mph93%29.68 "Hg9 mi
7:50 AM21 °FFog.2 mph93%29.68 "Hg9 mi
7:20 AM21 °FFog.2 mph93%29.68 "Hg6 mi
6:50 AM19 °FPartly cloudy.1 mph93%29.68 "Hg9 mi
6:20 AM21 °FPartly cloudy.1 mph93%29.71 "Hg6 mi
5:50 AM19 °FPassing clouds.2 mph93%29.71 "Hg6 mi
4:50 AM19 °FPassing clouds.1 mph93%29.71 "Hg6 mi
9:50 PM
Thu, Feb 11
27 °FPassing clouds.1 mph93%29.74 "Hg6 mi
8:50 PM27 °FPassing clouds.1 mph93%29.74 "Hg6 mi
7:50 PM28 °FClear.2 mph86%29.74 "Hg6 mi
6:50 PM32 °FPassing clouds.2 mph80%29.74 "Hg6 mi
5:50 PM34 °FPassing clouds.7 mph75%29.71 "Hg12 mi
4:50 PM39 °FPassing clouds.5 mph65%29.71 "Hg25 mi
4:20 PM41 °FPassing clouds.5 mph57%29.68 "Hg25 mi
3:50 PM41 °FPassing clouds.6 mph53%29.68 "Hg25 mi
3:20 PM39 °FScattered clouds.7 mph61%29.68 "Hg25 mi
2:50 PM41 °FScattered clouds.8 mph53%29.68 "Hg25 mi
2:20 PM41 °FScattered clouds.12 mph49%29.68 "Hg25 mi
1:50 PM43 °FScattered clouds.2 mph46%29.68 "Hg25 mi
1:20 PM41 °FPassing clouds.6 mph57%29.68 "Hg25 mi
Weather by CustomWeather, © 2016

See weather overviewHow to use our weather pages